Flag for Germany Weather past 2 weeks in Altenburg, Thuringia, Germany

Now
70 °F

Scattered clouds.


Feels Like: 70 °F
Forecast: 54 / 80 °F
Wind: 2 mph from North

Location: Altenburg Nobitz

Current Time: Jul 31, 2014 at 1:32:26 PM

Latest Report: Jul 31, 2014 at 12:50 PM


Visibility: N/A

Pressure: 30.01 "Hg

Humidity: 64%

Dew point: 57 °F

Location of AltenburgLocation

Historic Weather in Altenburg — Graph

°F

Altenburg temperature yesterday

Maximum temperature yesterday: 73 °F (at 2:50 PM)
Minimum temperature yesterday: 66 °F (at 8:20 AM)
Average temperature yesterday: 70 °F

Past Weeks' High & Low Weather Summary

 TemperatureHumidityPressure
High91 °F (Jul 20, 1:50 PM)100% (Jul 25, 8:20 AM)30.21 "Hg (Jul 25, 8:20 AM)
Low61 °F (Jul 25, 8:20 AM)26% (Jul 20, 1:50 PM)29.74 "Hg (Jul 29, 2:20 PM)
Average75 °F63%29.95 "Hg
* Reported Jul 16 12:20 PM — Jul 31 12:20 PM, Altenburg, Weather by CustomWeather, © 2014

Note: Actual official high and low records may vary slightly from our data, if they occured in-between our weather recording intervals... More about our weather records

Advertising

Altenburg weather history for previous 24 hours

 ConditionsComfort  
Time TempWeatherWind HumidityBarometerVisibility
12:20 PM
Jul 31
66 °FScattered clouds.7 mph73%30.01 "HgN/A
11:50 AM68 °FScattered clouds.7 mph64%30.01 "HgN/A
11:20 AM68 °FPassing clouds.6 mph69%30.01 "HgN/A
10:50 AM66 °FPassing clouds.6 mph73%30.01 "HgN/A
10:20 AM66 °FPassing clouds.8 mph73%30.01 "HgN/A
9:50 AM66 °FPassing clouds.9 mph73%30.01 "HgN/A
9:20 AM66 °FSunny.9 mph73%29.98 "Hg10 mi
8:50 AM64 °FPassing clouds.7 mph78%29.98 "HgN/A
8:20 AM63 °FSunny.7 mph83%29.98 "Hg10 mi
7:50 PM
Jul 30
68 °FLight rain. Scattered clouds.12 mph83%29.83 "HgN/A
7:20 PM70 °FScattered clouds.14 mph78%29.83 "HgN/A
6:50 PM70 °FScattered clouds.12 mph83%29.83 "HgN/A
6:20 PM70 °FBroken clouds.9 mph83%29.80 "HgN/A
5:50 PM72 °FBroken clouds.9 mph78%29.83 "HgN/A
5:20 PM70 °FBroken clouds.12 mph83%29.80 "HgN/A
4:50 PM72 °FBroken clouds.8 mph78%29.80 "HgN/A
4:20 PM70 °FBroken clouds.10 mph83%29.80 "HgN/A
3:50 PM72 °FBroken clouds.12 mph78%29.80 "HgN/A
3:20 PM72 °FBroken clouds.7 mph78%29.80 "HgN/A
2:50 PM73 °FBroken clouds.8 mph78%29.80 "HgN/A
2:20 PM72 °FPartly sunny.9 mph78%29.80 "HgN/A
1:50 PM70 °FBroken clouds.7 mph88%29.80 "HgN/A
1:20 PM72 °FBroken clouds.6 mph83%29.77 "HgN/A
Weather by CustomWeather, © 2014

See weather overviewHow to use our weather pages